Location: Newark
(54.6833°N, 25.2833°E)
Time: 13:13:57
(UTC+00:00)

Vanguard 2 Rocket - All Passes

Search period start: 26 September 2020 00:00
Search period end: 06 October 2020 00:00
Orbit: 554 x 3326 km, 32.9° (Epoch: 25 September)

Date Brightness Start Highest point End Pass type
(mag) Time Alt. Az. Time Alt. Az. Time Alt. Az.
26 Sep - 00:47:23 10° SSW 01:01:48 27° SSE 01:16:11 10° ESE visible
26 Sep - 02:59:42 10° SW 03:16:31 35° S 03:31:06 10° ESE visible
26 Sep - 05:15:35 10° WSW 05:30:58 30° SSW 05:43:00 10° SSE daylight
26 Sep - 07:35:42 10° WSW 07:43:33 15° SW 07:50:09 10° SSW daylight
26 Sep - 23:48:41 10° S 00:01:10 23° SE 00:14:22 10° ESE visible
27 Sep - 01:59:12 10° SW 02:15:28 34° SSE 02:30:50 10° ESE visible
27 Sep - 04:13:48 10° WSW 04:30:19 34° SSW 04:43:57 10° SE daylight
27 Sep - 06:31:46 10° WSW 06:43:48 21° SW 06:53:29 10° S daylight
27 Sep - 22:51:14 10° S 23:00:52 17° SE 23:11:21 10° ESE visible
28 Sep - 00:59:18 10° SSW 01:14:28 31° SSE 01:30:00 10° ESE visible
28 Sep - 03:12:33 10° WSW 03:29:23 36° S 03:44:20 10° SE visible
28 Sep - 05:29:03 10° WSW 05:43:39 27° SSW 05:55:30 10° SSE daylight
28 Sep - 07:53:40 10° WSW 07:55:47 10° SW 07:57:49 10° SW daylight
28 Sep - 21:56:54 10° SE 22:00:57 11° SE 22:05:12 10° ESE visible
29 Sep - 00:00:07 10° SSW 00:13:41 27° SSE 00:28:31 10° ESE visible
29 Sep - 02:11:51 10° SW 02:28:18 36° S 02:44:11 10° ESE visible
29 Sep - 04:27:04 10° WSW 04:43:05 32° SSW 04:56:43 10° SSE daylight
29 Sep - 06:46:24 10° WSW 06:56:11 17° SW 07:04:33 10° S daylight
29 Sep - 23:01:46 10° S 23:13:12 22° SE 23:26:14 10° ESE visible
30 Sep - 01:11:45 10° SW 01:27:13 34° SSE 01:43:28 10° ESE visible
30 Sep - 03:25:40 10° WSW 03:42:13 35° SSW 03:57:17 10° SE visible
30 Sep - 05:42:57 10° WSW 05:56:10 23° SW 06:07:23 10° S daylight
30 Sep - 22:04:42 10° SSE 22:13:07 16° SE 22:22:43 10° ESE visible
01 Oct - 00:12:14 10° SSW 00:26:18 31° SSE 00:42:12 10° ESE visible
01 Oct - 02:24:50 10° WSW 02:41:08 36° S 02:57:16 10° SE visible
01 Oct - 04:40:37 10° WSW 04:55:44 28° SSW 05:09:02 10° SSE daylight
01 Oct - 07:03:00 10° WSW 07:08:24 12° SW 07:13:23 10° SSW daylight
01 Oct - 23:13:24 10° SSW 23:25:41 27° SSE 23:40:17 10° ESE visible
02 Oct - 01:24:34 10° SW 01:40:01 36° S 01:56:42 10° ESE visible
02 Oct - 03:39:02 10° WSW 03:54:57 32° SSW 04:09:53 10° SE visible
02 Oct - 05:57:34 10° WSW 06:08:31 18° SW 06:18:17 10° S daylight
02 Oct - 22:15:26 10° S 22:25:27 21° SE 22:37:34 10° ESE visible
03 Oct - 00:24:51 10° SW 00:39:01 34° SSE 00:55:33 10° ESE visible
03 Oct - 02:38:05 10° WSW 02:53:57 35° S 03:10:03 10° SE visible
03 Oct - 04:54:36 10° WSW 05:08:14 24° SW 05:20:42 10° S daylight
03 Oct - 21:18:52 10° SSE 21:25:38 15° SE 21:33:30 10° ESE visible
03 Oct - 23:25:43 10° SSW 23:38:17 30° SSE 23:53:51 10° ESE visible
04 Oct - 01:37:41 10° WSW 01:52:51 36° S 02:09:38 10° SE visible
04 Oct - 03:52:43 10° WSW 04:07:37 28° SSW 04:21:59 10° SSE visible
04 Oct - 06:13:56 10° WSW 06:20:44 13° SW 06:27:09 10° SSW daylight
04 Oct - 22:27:14 10° SSW 22:37:56 25° SSE 22:51:32 10° ESE visible
05 Oct - 00:37:49 10° SW 00:51:51 35° S 01:08:38 10° ESE visible
05 Oct - 02:51:35 10° WSW 03:06:43 32° SSW 03:22:28 10° SE visible
05 Oct - 05:09:19 10° WSW 05:20:37 18° SW 05:31:21 10° S daylight
05 Oct - 21:29:38 10° S 21:38:00 19° SE 21:48:28 10° ESE visible
